[[{"header":{"parameterUnit":"m.s-1","parameterCategory":1,"la1":30.2991,"la2":30.254,"lo1":-89.0895,"lo2":-89.0444,"dy":0.0017,"dx":0.0017,"nx":28,"ny":28,"refTime":"2024-11-26T03:00:00:Z","depth":0,"parameterNumber":2,"parameterNumberName":"U-component_of_WINDS"},"data":[0,0,0,0,0,0,0,0,0,0,0,0,0,0,0,0,0,0,0,0,0,0,0,0,0,0,0,0,0,0,0,0,0,0,0,0,0,0,0,0,0,0,0,0,0,0,0,0,0,0,0,0,0,0,0,0,0,0,0.4002,0.4003,0,0.4077,0.4078,0.4079,0.4135,0.4136,0.4136,0.4137,0.4216,0.4217,0.4219,0,0,0,0,0,0,0,0,0,0,0,0,0,0.3911,0.3913,0.4002,0.4003,0.4004,0.4077,0.4078,0.4079,0.4135,0.4136,0.4137,0.4137,0.4215,0.4217,0.4219,0,0,0,0,0,0,0,0,0,0,0,0,0,0.3965,0.3913,0.4002,0.4041,0.4045,0.4077,0.4078,0.4079,0.4135,0.4136,0.4137,0.4137,0.4214,0.4217,0.4219,0.4218,0,0,0.4226,0.4228,0,0,0,0,0,0,0,0,0.3962,0.3968,0.4034,0.4038,0.4043,0.4098,0.4075,0.4126,0.4135,0.4101,0.4137,0.4138,0.4176,0.4181,0.4194,0.4222,0.4226,0.4227,0.4228,0.4229,0.423,0,0,0,0,0,0,0,0.3958,0.3965,0.4032,0.4035,0.4041,0.4056,0.4064,0.4085,0.4133,0.4104,0.4108,0.4116,0.4178,0.4191,0.4196,0.4227,0.4227,0.4229,0.423,0.4231,0.426,0.426,0,0,0,0,0,0,0.3948,0.3962,0.403,0.4034,0.4004,0.4057,0.4066,0.4079,0.4133,0.4142,0.4116,0.4119,0.4187,0.4193,0.4199,0.4203,0.4229,0.4231,0.4233,0.4261,0.426,0.4259,0,0,0,0,0,0,0.3946,0.3953,0.4027,0.3999,0.401,0.4057,0.4072,0.408,0.4094,0.4142,0.4151,0.412,0.4188,0.4196,0.4214,0.4207,0.4233,0.4235,0.4262,0.4261,0.426,0.4211,0,0,0,0,0,0,0.3943,0.3952,0.3952,0.3999,0.4011,0.4039,0.4071,0.4081,0.4097,0.4102,0.4148,0.4157,0.4189,0.421,0.4216,0.4211,0.4237,0.4263,0.4261,0.426,0.4213,0.4208,0.4204,0,0,0,0,0,0.3939,0.3935,0.3952,0.3959,0.4011,0.4038,0.4045,0.4082,0.4096,0.4097,0.4128,0.4155,0.4206,0.4211,0.4218,0.4214,0.4263,0.4262,0.426,0.4215,0.4209,0.4204,0,0,0,0,0,0,0.3887,0.3942,0.3961,0.3971,0.4,0.4048,0.405,0.4074,0.4099,0.4103,0.4148,0.4158,0.4171,0.4194,0.4199,0.4217,0.4238,0.4238,0.4202,0.4196,0.4191,0.4186,0.4239,0,0,0,0,0,0.3876,0.3893,0.394,0.3945,0.3958,0.4001,0.4014,0.404,0.4072,0.4084,0.4117,0.4147,0.417,0.4184,0.4208,0.4216,0.4228,0.4217,0.4212,0.4208,0.4208,0.4216,0.4212,0.4254,0.4254,0.4254,0,0,0.3855,0.3887,0.3895,0.3936,0.396,0.3978,0.4011,0.4027,0.4041,0.4087,0.4106,0.4131,0.4167,0.4181,0.4189,0.4201,0.4199,0.4206,0.4203,0.4205,0.4214,0.421,0.4206,0.4253,0.4253,0.4254,0,0,0.3825,0.385,0.3858,0.3882,0.392,0.3948,0.395,0.3995,0.4013,0.4032,0.4067,0.4085,0.4123,0.4148,0.4166,0.4146,0.4173,0.4153,0.4129,0.4136,0.4133,0.413,0.4125,0.4122,0.4152,0.4152,0.4152,0,0.3794,0.3821,0.3859,0.3874,0.3891,0.3933,0.3942,0.3964,0.4007,0.4018,0.4031,0.408,0.4108,0.4129,0.4124,0.4136,0.4141,0.4148,0.413,0.4128,0.4126,0.4121,0.4119,0.4149,0.415,0.415,0.415,0,0.3782,0.38,0.3802,0.3842,0.386,0.3871,0.3912,0.3925,0.395,0.3977,0.3998,0.4032,0.4064,0.4071,0.4094,0.4095,0.4102,0.4121,0.4144,0.4119,0.4115,0.4113,0.4146,0.4147,0.4147,0.4148,0,0,0.3722,0.3783,0.3783,0.3803,0.3847,0.3862,0.3876,0.3907,0.3918,0.3947,0.3961,0.3992,0.4011,0.4031,0.4058,0.4064,0.4049,0.4084,0.4085,0.4077,0.4053,0.4039,0.4037,0.4066,0.4066,0.4065,0.4051,0,0.37,0.3727,0.3762,0.3777,0.3795,0.3835,0.3848,0.3877,0.3903,0.3923,0.3952,0.3975,0.3997,0.4009,0.4017,0.4049,0.4045,0.405,0.4081,0.4081,0.4072,0.4035,0.402,0.4004,0.405,0.4049,0.4049,0,0.3679,0.3705,0.3722,0.3766,0.3775,0.3785,0.3817,0.3835,0.3869,0.3888,0.391,0.394,0.3958,0.3977,0.4003,0.4006,0.4021,0.4038,0.4039,0.4044,0.4065,0.4041,0.4,0.3998,0.4047,0.4047,0.4047,0,0.3635,0.3674,0.369,0.3705,0.3757,0.3763,0.3785,0.382,0.3837,0.3865,0.3876,0.3906,0.3922,0.3945,0.3982,0.3992,0.4005,0.4027,0.4023,0.4022,0.4025,0.4024,0.3987,0.4031,0.4031,0.4031,0.4031,0,0.3608,0.3617,0.3671,0.3681,0.3693,0.3734,0.3745,0.377,0.3801,0.3818,0.3854,0.3868,0.3916,0.3936,0.3965,0.3984,0.399,0.4007,0.4015,0.4005,0.4003,0.4016,0.4019,0.4031,0.4031,0.4031,0.4031,0,0.3561,0.3598,0.3618,0.3665,0.3677,0.3684,0.3725,0.3736,0.3765,0.3785,0.3792,0.3837,0.3863,0.3902,0.394,0.3959,0.3974,0.3985,0.3962,0.3967,0.3961,0.3962,0.3933,0.3932,0.3974,0.3974,0.3973,0,0.3543,0.3551,0.3599,0.3612,0.3632,0.3653,0.3671,0.3711,0.3728,0.3768,0.3775,0.3804,0.3829,0.3869,0.3906,0.3936,0.3949,0.3937,0.3954,0.3944,0.3951,0.3951,0.3953,0.3934,0.3933,0.3932,0.3932,0,0.3506,0.3524,0.3547,0.3577,0.3596,0.3622,0.3649,0.3658,0.3705,0.3722,0.3749,0.3768,0.3807,0.3836,0.3871,0.3894,0.3921,0.3926,0.3927,0.3917,0.3904,0.3913,0.3953,0.3927,0.3927,0.3928,0.3928,0.3928,0.3474,0.3484,0.3519,0.3544,0.3569,0.3594,0.3607,0.3637,0.366,0.3695,0.3717,0.3744,0.3779,0.3828,0.385,0.3872,0.3884,0.3884,0.3885,0.3885,0.3882,0.3899,0.3879,0.3879,0.3879,0.3879,0.3879,0,0.3441,0.3465,0.3488,0.3525,0.3545,0.3568,0.3599,0.3615,0.3637,0.3668,0.3692,0.3724,0.3752,0.3791,0.3822,0.3832,0.3846,0.3839,0.384,0.3845,0.3869,0.3866,0.3828,0.3828,0.3828,0.3828,0.3828,0.3828,0.3426,0.3444,0.3466,0.3497,0.3522,0.3548,0.3564,0.3588,0.3612,0.3646,0.3669,0.3694,0.3728,0.3763,0.379,0.3801,0.3811,0.3802,0.3816,0.3838,0.3843,0.3848,0.3845,0.3803,0.3803,0.3791,0.379,0.379]},{"header":{"parameterUnit":"m.s-1","parameterCategory":1,"la1":30.2991,"la2":30.254,"lo1":-89.0895,"lo2":-89.0444,"dy":0.0017,"dx":0.0017,"nx":28,"ny":28,"refTime":"2024-11-26T03:00:00:Z","depth":0,"parameterNumber":3,"parameterNumberName":"V-component_of_WINDS"},"data":[0,0,0,0,0,0,0,0,0,0,0,0,0,0,0,0,0,0,0,0,0,0,0,0,0,0,0,0,0,0,0,0,0,0,0,0,0,0,0,0,0,0,0,0,0,0,0,0,0,0,0,0,0,0,0,0,0,0,3.4433,3.4432,0,3.4342,3.4341,3.434,3.4306,3.4306,3.4307,3.4307,3.4207,3.4204,3.4201,0,0,0,0,0,0,0,0,0,0,0,0,0,3.4575,3.4572,3.4433,3.4432,3.4431,3.4342,3.4341,3.4339,3.4306,3.4306,3.4307,3.4307,3.4208,3.4204,3.4201,0,0,0,0,0,0,0,0,0,0,0,0,0,3.4501,3.4572,3.4434,3.4404,3.44,3.4342,3.434,3.4339,3.4306,3.4306,3.4307,3.4307,3.4209,3.4205,3.42,3.4163,0,0,3.4187,3.4185,0,0,0,0,0,0,0,0,3.4505,3.4496,3.4409,3.4406,3.4402,3.4336,3.4354,3.428,3.4306,3.4342,3.4307,3.4308,3.4249,3.4241,3.4223,3.4158,3.4154,3.4186,3.4183,3.4182,3.418,0,0,0,0,0,0,0,3.451,3.45,3.4397,3.4408,3.4404,3.4394,3.4384,3.4339,3.4293,3.4339,3.4336,3.4326,3.4247,3.4227,3.422,3.4152,3.4186,3.4182,3.418,3.4178,3.4053,3.4052,0,0,0,0,0,0,3.4521,3.4504,3.44,3.4394,3.4456,3.4391,3.438,3.4356,3.4294,3.4285,3.4326,3.4325,3.4235,3.4225,3.4216,3.4169,3.4182,3.4177,3.4175,3.4054,3.4053,3.4052,0,0,0,0,0,0,3.4525,3.4512,3.4403,3.4448,3.4434,3.4388,3.4362,3.4354,3.4335,3.4284,3.4275,3.4314,3.4235,3.4223,3.4177,3.4165,3.4175,3.4171,3.4054,3.4053,3.4053,3.4074,0,0,0,0,0,0,3.4529,3.4514,3.45,3.4449,3.4432,3.4367,3.4361,3.4352,3.4328,3.4326,3.4271,3.4262,3.4234,3.4184,3.4173,3.4159,3.4168,3.4055,3.4054,3.4053,3.4074,3.4074,3.4074,0,0,0,0,0,3.4534,3.4508,3.45,3.4487,3.4414,3.4367,3.4357,3.4326,3.4327,3.4312,3.428,3.4264,3.4169,3.418,3.4166,3.4152,3.4056,3.4054,3.4053,3.4074,3.4074,3.4074,0,0,0,0,0,0,3.4557,3.4501,3.4491,3.4448,3.4413,3.4361,3.4341,3.4327,3.4289,3.4288,3.4251,3.4238,3.4196,3.4169,3.4182,3.4113,3.4111,3.4107,3.4132,3.4131,3.4131,3.4138,3.4164,0,0,0,0,0,3.4557,3.4525,3.4477,3.4444,3.4427,3.4388,3.4366,3.4346,3.4307,3.4291,3.4255,3.4217,3.4178,3.4153,3.4114,3.407,3.4058,3.4054,3.4054,3.4054,3.4051,3.4026,3.4024,3.4048,3.4048,3.4048,0,0,3.4557,3.4522,3.4504,3.4448,3.4418,3.4385,3.4375,3.4339,3.4314,3.4285,3.4241,3.4213,3.4167,3.4123,3.4101,3.4099,3.4042,3.4052,3.4053,3.4049,3.4025,3.4022,3.402,3.4047,3.4047,3.4047,0,0,3.454,3.451,3.448,3.4452,3.4408,3.4382,3.4375,3.4326,3.4308,3.4263,3.4241,3.4209,3.4143,3.4112,3.4087,3.406,3.4044,3.4049,3.4047,3.4024,3.4022,3.402,3.4011,3.4008,3.4046,3.4046,3.4046,0,3.4544,3.4495,3.4466,3.4433,3.4409,3.4384,3.4352,3.4325,3.427,3.4253,3.4252,3.417,3.4137,3.4086,3.4079,3.406,3.405,3.4055,3.4025,3.4023,3.4021,3.4012,3.4008,3.4047,3.4046,3.4046,3.4046,0,3.4503,3.4469,3.445,3.4401,3.4374,3.4342,3.4307,3.4283,3.4266,3.424,3.4195,3.4155,3.4109,3.4095,3.4076,3.4041,3.4041,3.4033,3.4031,3.402,3.4011,3.4007,3.4048,3.4047,3.4047,3.4047,0,0,3.4496,3.4434,3.4427,3.4405,3.4356,3.4328,3.4295,3.4252,3.4233,3.4196,3.4166,3.4112,3.4105,3.4077,3.4055,3.4035,3.4017,3.4029,3.4027,3.4029,3.3976,3.3982,3.3979,3.4006,3.4006,3.4005,3.398,0,3.4473,3.4415,3.4389,3.4341,3.431,3.4286,3.4257,3.4223,3.4198,3.4166,3.4137,3.41,3.4093,3.4077,3.4056,3.4024,3.4006,3.4025,3.3977,3.3976,3.399,3.3974,3.398,3.3958,3.3976,3.3975,3.3975,0,3.4438,3.4404,3.4355,3.4311,3.4297,3.4272,3.4231,3.4201,3.4162,3.4145,3.4116,3.4095,3.4057,3.4058,3.4006,3.402,3.3999,3.398,3.3979,3.3973,3.3975,3.3968,3.395,3.3947,3.3969,3.3969,3.3969,0,3.4439,3.4381,3.4344,3.4326,3.4274,3.4257,3.4234,3.4195,3.4172,3.4136,3.412,3.4079,3.4056,3.4024,3.3993,3.3996,3.3944,3.3942,3.3928,3.3929,3.3918,3.3919,3.3897,3.3904,3.3904,3.3904,3.3904,0,3.4416,3.4387,3.4345,3.4322,3.4288,3.4258,3.4225,3.42,3.4166,3.4137,3.4114,3.4086,3.4047,3.4014,3.3989,3.395,3.3939,3.3924,3.3918,3.3926,3.3928,3.3912,3.3912,3.3903,3.3903,3.3904,3.3904,0,3.4411,3.4382,3.4341,3.4296,3.4284,3.4261,3.4222,3.4198,3.4173,3.4137,3.4126,3.4086,3.4047,3.4013,3.396,3.3943,3.3903,3.3895,3.3917,3.3913,3.3902,3.3904,3.3869,3.3863,3.3874,3.3874,3.3874,0,3.4399,3.4376,3.433,3.431,3.4289,3.4257,3.4234,3.4203,3.4179,3.4134,3.4116,3.4075,3.4042,3.398,3.3944,3.3904,3.3895,3.3886,3.3888,3.3898,3.3895,3.3897,3.3895,3.3886,3.3886,3.3886,3.3886,0,3.4379,3.4367,3.4336,3.43,3.4274,3.4243,3.4211,3.4196,3.4159,3.4133,3.4095,3.4069,3.4017,3.3977,3.3933,3.3907,3.389,3.3885,3.388,3.3889,3.3903,3.3895,3.3917,3.3886,3.3886,3.3886,3.3886,3.3886,3.437,3.435,3.4315,3.4281,3.4255,3.4227,3.4203,3.4176,3.4144,3.4101,3.4084,3.4045,3.4006,3.3946,3.3921,3.3888,3.3885,3.3878,3.3876,3.3874,3.3876,3.3908,3.388,3.388,3.388,3.388,3.388,0,3.4351,3.4328,3.4297,3.4256,3.4229,3.4218,3.4183,3.4161,3.4127,3.4094,3.4062,3.4018,3.398,3.3942,3.3901,3.3883,3.3874,3.3873,3.3874,3.3868,3.3881,3.389,3.3881,3.3881,3.3881,3.3881,3.3881,3.3881,3.4337,3.4303,3.4286,3.4238,3.4214,3.4177,3.4159,3.4132,3.4106,3.4058,3.4027,3.4004,3.3969,3.3926,3.389,3.388,3.3866,3.3867,3.3855,3.3867,3.3867,3.3868,3.3876,3.3864,3.3864,3.3845,3.3845,3.3845]}]]